SCP
0 0 0 0 1 5 6 4 -0 2 3 3 2 2 1 1 1 1 1 1 0 1 0 1 3 3 3 3 2 2 2 0 0 0 0 0 0 1 0 0 0 0 0
0 0 0 0 1 7 7 7 6 3 3 3 1 1 1 1 1 2 1 1 1 1 1 3 2 1 1 1 0 1 0 0 0 0 0 0 0 0 0 0 0 0 0
0 0 0 0 0 9 8 6 5 4 3 2 1 2 1 1 2 2 2 1 1 1 2 2 1 1 0 0 0 0 0 0 0 0 0 0 0 0 0 0 0 0 0
0 0 0 0 0 10 8 6 5 6 3 2 3 4 2 1 2 1 1 2 2 2 1 1 0 0 0 0 0 0 0 0 -0 0 0 0 -0 -0 -0 0 0 0 0
0 0 0 0 3 11 8 6 6 6 4 3 4 3 2 4 3 3 3 2 1 1 0 0 0 0 0 0 0 -0 0 -0 0 0 0 0 0 0 0 0 0 0 0
0 0 0 0 6 11 7 7 7 5 4 3 3 3 4 3 4 3 1 1 0 0 0 0 0 0 0 -0 -0 0 0 0 0 0 0 0 0 0 0 0 0 0 0
0 0 0 0 3 7 6 8 7 4 3 2 4 3 3 3 3 1 0 0 0 0 0 -0 0 0 0 0 -0 -0 0 0 0 0 0 0 0 0 0 0 0 0 0
0 0 0 0 8 9 6 7 5 7 7 4 4 4 3 3 2 0 0 0 0 0 0 0 0 0 0 0 0 0 0 0 0 0 0 0 0 0 0 0 0 0 0
0 0 0 0 6 9 7 6 5 4 2 3 4 3 3 1 0 0 0 0 0 0 0 0 0 0 0 0 0 0 0 0 0 0 0 0 0 0 0 0 0 0 0
0 0 0 0 7 8 7 5 4 4 3 3 2 3 1 1 1 0 0 0 0 0 0 0 0 0 0 0 0 0 0 0 0 0 0 0 0 0 0 0 0 0 0
0 0 0 2 8 6 7 4 5 6 6 3 4 2 1 1 0 0 0 0 0 0 0 0 0 0 0 0 0 0 0 0 0 0 0 0 0 0 0 0 0 0 0
0 0 1 7 6 6 5 5 6 7 4 5 2 1 0 0 0 0 0 0 0 0 0 0 0 0 0 0 0 0 0 0 0 0 0 0 0 0 0 0 0 0 0
0 1 4 5 2 0 0 6 4 5 4 2 1 0 0 0 0 0 0 0 0 0 0 0 0 0 0 0 0 0 0 0 0 0 0 0 0 0 0 0 0 0 0
2 7 3 1 0 0 0 0 2 2 2 0 0 0 0 0 0 0 0 0 0 0 0 0 0 0 0 0 0 0 0 0 0 0 0 0 0 0 0 0 0 0 0
1 4 1 0 0 0 0 1 1 1 0 0 0 0 0 0 0 0 0 0 0 0 0 0 0 0 0 0 0 0 0 0 0 0 0 0 0 0 0 0 0 0 0
1 3 1 0 0 0 1 0 0 0 0 0 0 -0 -0 0 0 0 0 0 0 0 0 0 0 0 0 0 0 0 0 0 0 0 0 0 0 0 0 0 0 0 0
1 1 1 0 0 0 0 0 0 0 0 0 0 0 0 0 0 0 0 0 0 0 0 0 0 0 0 0 0 0 0 0 0 0 0 0 0 0 0 0 0 0 0
1 0 0 0 0 0 0 0 0 0 0 0 0 0 0 0 0 0 0 0 0 0 0 0 0 0 0 0 0 0 0 0 0 0 0 0 0 0 0 0 0 0 0
0 0 0 0 0 0 0 0 0 0 0 0 0 0 0 0 0 0 0 0 0 0 0 0 0 0 0 0 0 0 0 0 0 0 0 0 0 0 0 0 0 0 0
0 0 0 0 0 0 0 0 0 0 0 0 -0 0 0 0 -0 -0 -0 0 0 0 0 0 0 0 0 0 0 0 0 0 0 0 0 0 0 0 0 0 0 0 0
0 0 0 0 0 0 0 0 0 0 0 -0 -0 -0 0 -0 -0 0 0 0 0 0 0 0 0 0 0 0 0 0 0 0 0 0 0 0 0 0 0 0 0 0 0
0 0 0 0 0 0 0 0 0 -0 -0 -0 -0 -0 -0 0 0 0 0 0 0 0 0 0 0 0 0 0 0 0 0 0 0 0 0 0 0 0 0 0 0 0 0
0 0 0 0 0 0 0 -0 -0 -0 -0 -0 -0 -0 -0 0 0 0 0 -0 -0 -0 -0 -0 0 0 0 0 0 0 0 0 0 0 0 0 -0 -0 -0 0 -0 -0 0
0 0 0 0 0 0 -0 -0 -0 -0 -0 -0 -0 0 0 0 0 0 0 0 0 0 0 0 0 0 0 0 0 0 0 0 0 0 0 0 0 0 0 0 0 0 0
0 0 0 0 0 0 -0 -0 -0 -0 -0 0 0 0 0 0 0 0 0 0 0 0 0 0 0 0 0 0 0 0 0 0 0 0 0 0 0 0 0 0 0 0 0
0 0 0 0 0 0 -0 -0 0 0 0 0 0 0 0 0 0 0 0 0 0 -0 -0 0 0 0 0 -0 -0 0 0 0 0 0 0 0 0 0 0 0 0 0 0
Wind_Speed_500mb
83 78 68 71 57 53 73 81 103 80 80 71 64 55 54 46 42 38 39 31 28 31 29 22 37 38 37 38 32 32 27 32 18 12 15 14 6 10 15 21 28 31 40
92 83 74 65 62 55 65 73 67 67 73 70 69 55 50 49 44 41 39 35 33 34 32 33 37 38 35 41 34 32 21 16 2 11 14 4 11 5 25 22 27 31 42
75 64 65 81 74 65 69 71 67 70 74 73 71 60 47 50 50 49 44 34 40 38 32 40 36 31 29 32 32 31 22 14 14 15 22 10 5 27 6 20 11 28 34
64 70 57 62 85 78 73 68 70 81 85 79 72 66 64 64 53 52 41 40 40 40 41 29 22 21 24 21 19 22 22 22 13 13 12 6 12 11 18 16 28 20 23
58 51 62 64 70 88 88 74 86 86 90 88 83 71 64 61 57 55 51 51 46 37 26 24 22 14 14 6 6 7 16 11 5 6 6 14 16 14 15 27 37 29 25
72 69 69 71 76 97 86 79 88 98 90 81 72 81 81 76 72 59 56 42 40 34 25 23 14 7 13 13 7 11 9 3 3 7 11 14 14 18 17 24 29 30 23
88 88 82 65 81 85 82 93 91 93 88 74 84 87 79 75 69 61 53 51 41 33 32 25 31 33 27 20 9 5 3 4 5 7 7 6 8 16 16 18 24 29 24
96 92 80 78 86 93 96 93 98 95 82 82 96 85 76 67 68 55 52 37 40 39 35 36 35 26 18 10 8 6 8 9 13 13 9 15 11 8 16 17 21 30 27
93 92 84 91 93 101 100 98 99 101 110 91 95 78 76 69 58 51 55 52 36 39 37 34 26 20 15 13 9 10 12 13 14 13 9 12 3 15 23 21 22 23 31
85 87 93 90 95 98 101 103 103 107 97 101 93 83 71 61 62 65 56 40 43 43 39 32 22 16 16 12 10 11 13 14 9 10 12 5 11 10 11 13 17 24 27
46 91 84 73 98 98 110 113 114 103 99 90 87 76 67 71 67 57 53 55 51 41 36 28 22 19 16 13 11 14 23 24 21 15 21 16 14 12 7 13 20 23 27
66 75 68 87 92 103 119 114 116 108 101 92 87 80 75 70 63 64 57 57 46 40 35 30 25 18 16 16 19 17 20 9 12 13 14 12 15 17 18 20 22 26 31
67 59 67 89 95 94 85 101 125 112 110 105 96 84 87 75 73 66 57 53 44 38 32 29 24 20 20 20 18 19 14 11 11 9 15 16 16 22 23 15 24 28 34
52 66 71 81 56 32 31 51 104 117 114 108 92 91 83 78 72 65 59 52 43 37 33 31 27 24 21 23 24 12 14 11 11 6 10 17 27 31 29 29 31 35 40
52 68 91 105 85 55 57 75 97 109 108 103 95 94 89 79 72 64 57 48 40 35 32 27 20 15 15 18 14 15 15 8 7 10 20 24 25 30 36 39 39 41 45
61 69 81 85 87 26 116 96 102 103 105 99 98 92 86 77 71 63 54 47 43 36 28 23 18 21 20 17 13 14 11 6 6 9 14 20 23 29 37 36 34 28 40
77 74 91 95 109 113 92 95 102 102 104 104 96 90 80 74 65 58 53 47 41 34 26 24 23 23 21 17 14 11 14 7 9 13 12 21 38 40 41 40 36 32 26
87 99 97 92 104 106 106 99 98 96 96 96 91 80 75 72 64 57 51 45 38 33 27 26 25 23 21 16 12 9 15 18 21 22 29 36 38 42 47 42 39 35 30
91 100 102 101 103 95 103 99 96 90 95 90 88 83 76 68 61 57 51 45 40 36 29 24 27 23 21 18 16 13 18 25 21 24 28 37 43 45 42 40 41 40 37
111 116 123 126 108 93 91 100 94 91 91 90 88 76 68 62 60 55 50 44 36 32 30 26 28 25 21 19 21 26 16 16 13 11 27 38 42 37 47 48 50 48 47
108 116 120 117 109 93 103 99 95 93 91 90 83 70 63 63 59 60 55 49 41 28 34 36 34 30 24 17 7 1 4 16 13 11 20 32 39 43 51 53 47 46 46
106 112 117 103 89 94 105 101 95 90 94 88 77 73 69 66 65 56 45 38 40 37 38 37 33 30 27 28 22 19 12 6 8 18 37 40 44 41 43 45 45 42 44
98 105 100 96 87 88 101 111 96 98 88 77 76 69 62 59 55 51 47 41 30 38 44 36 36 31 20 19 24 28 29 27 23 25 35 37 37 40 38 38 41 45 49
91 92 94 96 92 96 96 96 81 71 77 80 74 70 66 60 48 45 46 48 45 32 30 25 20 5 7 12 10 16 18 25 29 29 32 28 27 31 35 39 41 43 49
86 91 88 90 91 84 78 68 68 77 80 79 74 66 62 57 50 50 46 47 43 40 37 35 26 9 20 27 31 31 33 34 33 30 24 30 34 38 42 44 43 44 51
87 87 81 83 85 87 85 76 74 77 78 76 62 56 56 48 37 46 49 40 31 19 19 22 11 19 29 34 39 36 34 34 30 28 31 33 36 40 43 44 46 47 55
Wind_Direction_500mb
239 237 237 224 232 206 185 187 169 175 174 173 171 178 178 171 175 180 193 201 187 198 190 185 215 217 219 227 240 245 234 239 243 238 286 299 0 321 327 328 333 314 333
227 230 224 216 219 206 200 190 179 183 176 176 171 179 175 171 173 186 195 204 186 201 189 200 219 227 236 233 238 227 217 216 182 349 340 299 303 239 346 352 346 337 339
218 223 215 205 215 203 211 192 188 191 183 182 168 176 174 168 173 186 192 195 190 202 202 210 222 231 238 235 230 219 222 218 268 303 309 304 303 312 187 330 337 333 347
211 219 217 210 202 196 204 200 192 195 186 183 174 174 171 171 176 189 189 183 190 188 200 207 223 220 230 231 250 264 251 262 297 346 344 341 321 335 320 308 333 5 330
247 225 221 217 196 191 199 198 194 193 187 180 173 173 168 169 178 186 186 188 192 189 193 197 202 210 246 256 148 210 227 185 246 218 299 332 351 346 316 325 338 348 346
239 235 233 213 192 192 194 195 193 192 184 176 178 171 176 177 178 183 184 177 177 165 192 198 157 113 135 165 162 139 154 275 333 319 327 357 10 320 332 334 340 333 28
222 226 235 221 197 187 195 193 191 184 181 177 177 180 180 182 186 189 179 172 179 189 168 146 142 128 131 141 148 141 104 18 349 333 332 37 343 15 344 321 343 351 9
208 219 224 223 181 184 191 192 186 179 175 186 185 182 182 179 181 181 166 174 176 161 156 158 149 150 141 126 128 111 69 13 352 4 21 69 0 339 339 4 356 357 359
200 211 215 221 185 179 190 187 180 173 175 182 180 178 175 171 163 154 162 173 163 159 162 155 159 151 131 117 90 48 25 17 26 27 60 96 349 16 17 13 2 343 327
197 203 213 218 180 183 186 184 183 176 174 180 177 164 162 161 156 164 166 162 150 154 159 161 152 135 122 106 56 34 28 50 59 0 35 66 78 35 29 359 329 360 338
260 198 211 206 181 185 187 180 173 169 172 169 157 158 157 158 163 156 158 154 151 156 152 144 144 132 107 83 70 50 57 49 30 42 26 36 16 357 338 342 332 335 326
239 203 206 183 184 178 179 178 170 159 161 153 159 159 155 153 150 150 153 148 143 142 140 131 122 113 96 79 78 96 83 88 45 19 353 355 4 354 331 338 332 325 318
237 201 168 170 169 177 181 182 148 152 154 156 160 152 145 149 146 142 146 144 144 133 130 124 117 104 95 92 94 89 97 66 46 21 23 9 350 330 336 338 318 316 318
171 141 139 136 121 148 202 175 144 155 152 153 152 145 146 143 141 143 137 140 144 141 134 123 114 112 129 123 108 99 79 66 29 16 343 342 338 334 336 337 336 334 333
135 128 137 137 114 119 173 131 141 150 149 149 147 139 140 142 141 137 138 141 141 138 132 132 144 133 125 131 131 131 94 99 93 9 346 338 327 333 339 340 341 341 339
141 129 143 160 164 138 146 154 143 141 147 143 137 140 140 142 143 143 141 141 135 131 130 133 123 116 111 112 109 106 100 79 43 7 349 341 324 324 330 333 333 337 328
133 123 121 132 149 165 153 138 137 140 136 131 133 137 143 141 138 141 142 138 134 132 130 114 108 103 101 101 108 126 85 19 346 335 330 310 322 330 330 334 333 330 335
132 135 131 132 139 141 139 139 137 136 131 129 131 132 135 133 137 139 135 129 124 120 117 114 112 108 104 102 100 86 61 24 2 15 359 349 344 342 342 343 343 345 341
128 136 144 156 139 135 133 135 131 130 126 124 125 127 132 135 134 130 127 124 123 119 115 112 108 105 104 100 92 70 52 28 1 3 357 350 347 347 354 2 6 9 15
130 128 131 144 145 138 136 129 128 126 124 125 126 126 129 130 127 126 121 118 116 118 124 107 95 96 98 107 107 104 92 56 354 4 7 343 357 16 19 20 21 15 14
123 127 134 140 145 137 132 127 125 122 121 122 123 126 126 124 121 117 119 128 129 119 89 84 87 87 82 88 122 171 109 109 81 35 344 8 25 27 23 25 21 14 6
118 121 123 128 133 130 124 119 115 122 122 123 127 127 125 127 130 129 128 116 104 97 90 82 77 71 64 56 55 57 78 111 47 27 29 28 26 28 17 14 15 6 7
109 115 120 125 126 122 124 121 122 129 132 130 122 121 122 120 113 113 114 114 108 103 93 92 89 86 71 60 50 43 43 61 53 54 35 25 24 22 19 12 13 1 8
113 118 118 117 112 121 122 124 131 133 130 122 120 115 113 115 116 132 131 126 117 114 101 100 108 98 77 74 65 66 78 81 72 54 41 26 21 22 17 19 17 8 5
111 112 112 111 109 113 116 125 132 132 123 122 124 130 132 135 139 132 128 127 118 134 138 132 130 85 80 77 76 79 84 72 60 50 32 29 26 25 21 19 16 10 360
106 108 112 112 111 112 114 119 128 131 130 123 130 135 135 136 120 129 129 121 121 130 110 142 129 92 88 88 78 77 76 71 54 43 35 29 26 24 19 16 12 11 2
Wind_Speed_850mb
83 78 68 71 57 53 73 81 103 80 80 71 64 55 54 46 42 38 39 31 28 31 29 22 37 38 37 38 32 32 27 32 18 12 15 14 6 10 15 21 28 31 40
92 83 74 65 62 55 65 73 67 67 73 70 69 55 50 49 44 41 39 35 33 34 32 33 37 38 35 41 34 32 21 16 2 11 14 4 11 5 25 22 27 31 42
75 64 65 81 74 65 69 71 67 70 74 73 71 60 47 50 50 49 44 34 40 38 32 40 36 31 29 32 32 31 22 14 14 15 22 10 5 27 6 20 11 28 34
64 70 57 62 85 78 73 68 70 81 85 79 72 66 64 64 53 52 41 40 40 40 41 29 22 21 24 21 19 22 22 22 13 13 12 6 12 11 18 16 28 20 23
58 51 62 64 70 88 88 74 86 86 90 88 83 71 64 61 57 55 51 51 46 37 26 24 22 14 14 6 6 7 16 11 5 6 6 14 16 14 15 27 37 29 25
72 69 69 71 76 97 86 79 88 98 90 81 72 81 81 76 72 59 56 42 40 34 25 23 14 7 13 13 7 11 9 3 3 7 11 14 14 18 17 24 29 30 23
88 88 82 65 81 85 82 93 91 93 88 74 84 87 79 75 69 61 53 51 41 33 32 25 31 33 27 20 9 5 3 4 5 7 7 6 8 16 16 18 24 29 24
96 92 80 78 86 93 96 93 98 95 82 82 96 85 76 67 68 55 52 37 40 39 35 36 35 26 18 10 8 6 8 9 13 13 9 15 11 8 16 17 21 30 27
93 92 84 91 93 101 100 98 99 101 110 91 95 78 76 69 58 51 55 52 36 39 37 34 26 20 15 13 9 10 12 13 14 13 9 12 3 15 23 21 22 23 31
85 87 93 90 95 98 101 103 103 107 97 101 93 83 71 61 62 65 56 40 43 43 39 32 22 16 16 12 10 11 13 14 9 10 12 5 11 10 11 13 17 24 27
46 91 84 73 98 98 110 113 114 103 99 90 87 76 67 71 67 57 53 55 51 41 36 28 22 19 16 13 11 14 23 24 21 15 21 16 14 12 7 13 20 23 27
66 75 68 87 92 103 119 114 116 108 101 92 87 80 75 70 63 64 57 57 46 40 35 30 25 18 16 16 19 17 20 9 12 13 14 12 15 17 18 20 22 26 31
67 59 67 89 95 94 85 101 125 112 110 105 96 84 87 75 73 66 57 53 44 38 32 29 24 20 20 20 18 19 14 11 11 9 15 16 16 22 23 15 24 28 34
52 66 71 81 56 32 31 51 104 117 114 108 92 91 83 78 72 65 59 52 43 37 33 31 27 24 21 23 24 12 14 11 11 6 10 17 27 31 29 29 31 35 40
52 68 91 105 85 55 57 75 97 109 108 103 95 94 89 79 72 64 57 48 40 35 32 27 20 15 15 18 14 15 15 8 7 10 20 24 25 30 36 39 39 41 45
61 69 81 85 87 26 116 96 102 103 105 99 98 92 86 77 71 63 54 47 43 36 28 23 18 21 20 17 13 14 11 6 6 9 14 20 23 29 37 36 34 28 40
77 74 91 95 109 113 92 95 102 102 104 104 96 90 80 74 65 58 53 47 41 34 26 24 23 23 21 17 14 11 14 7 9 13 12 21 38 40 41 40 36 32 26
87 99 97 92 104 106 106 99 98 96 96 96 91 80 75 72 64 57 51 45 38 33 27 26 25 23 21 16 12 9 15 18 21 22 29 36 38 42 47 42 39 35 30
91 100 102 101 103 95 103 99 96 90 95 90 88 83 76 68 61 57 51 45 40 36 29 24 27 23 21 18 16 13 18 25 21 24 28 37 43 45 42 40 41 40 37
111 116 123 126 108 93 91 100 94 91 91 90 88 76 68 62 60 55 50 44 36 32 30 26 28 25 21 19 21 26 16 16 13 11 27 38 42 37 47 48 50 48 47
108 116 120 117 109 93 103 99 95 93 91 90 83 70 63 63 59 60 55 49 41 28 34 36 34 30 24 17 7 1 4 16 13 11 20 32 39 43 51 53 47 46 46
106 112 117 103 89 94 105 101 95 90 94 88 77 73 69 66 65 56 45 38 40 37 38 37 33 30 27 28 22 19 12 6 8 18 37 40 44 41 43 45 45 42 44
98 105 100 96 87 88 101 111 96 98 88 77 76 69 62 59 55 51 47 41 30 38 44 36 36 31 20 19 24 28 29 27 23 25 35 37 37 40 38 38 41 45 49
91 92 94 96 92 96 96 96 81 71 77 80 74 70 66 60 48 45 46 48 45 32 30 25 20 5 7 12 10 16 18 25 29 29 32 28 27 31 35 39 41 43 49
86 91 88 90 91 84 78 68 68 77 80 79 74 66 62 57 50 50 46 47 43 40 37 35 26 9 20 27 31 31 33 34 33 30 24 30 34 38 42 44 43 44 51
87 87 81 83 85 87 85 76 74 77 78 76 62 56 56 48 37 46 49 40 31 19 19 22 11 19 29 34 39 36 34 34 30 28 31 33 36 40 43 44 46 47 55
Wind_Direction_850mb
239 237 237 224 232 206 185 187 169 175 174 173 171 178 178 171 175 180 193 201 187 198 190 185 215 217 219 227 240 245 234 239 243 238 286 299 0 321 327 328 333 314 333
227 230 224 216 219 206 200 190 179 183 176 176 171 179 175 171 173 186 195 204 186 201 189 200 219 227 236 233 238 227 217 216 182 349 340 299 303 239 346 352 346 337 339
218 223 215 205 215 203 211 192 188 191 183 182 168 176 174 168 173 186 192 195 190 202 202 210 222 231 238 235 230 219 222 218 268 303 309 304 303 312 187 330 337 333 347
211 219 217 210 202 196 204 200 192 195 186 183 174 174 171 171 176 189 189 183 190 188 200 207 223 220 230 231 250 264 251 262 297 346 344 341 321 335 320 308 333 5 330
247 225 221 217 196 191 199 198 194 193 187 180 173 173 168 169 178 186 186 188 192 189 193 197 202 210 246 256 148 210 227 185 246 218 299 332 351 346 316 325 338 348 346
239 235 233 213 192 192 194 195 193 192 184 176 178 171 176 177 178 183 184 177 177 165 192 198 157 113 135 165 162 139 154 275 333 319 327 357 10 320 332 334 340 333 28
222 226 235 221 197 187 195 193 191 184 181 177 177 180 180 182 186 189 179 172 179 189 168 146 142 128 131 141 148 141 104 18 349 333 332 37 343 15 344 321 343 351 9
208 219 224 223 181 184 191 192 186 179 175 186 185 182 182 179 181 181 166 174 176 161 156 158 149 150 141 126 128 111 69 13 352 4 21 69 0 339 339 4 356 357 359
200 211 215 221 185 179 190 187 180 173 175 182 180 178 175 171 163 154 162 173 163 159 162 155 159 151 131 117 90 48 25 17 26 27 60 96 349 16 17 13 2 343 327
197 203 213 218 180 183 186 184 183 176 174 180 177 164 162 161 156 164 166 162 150 154 159 161 152 135 122 106 56 34 28 50 59 0 35 66 78 35 29 359 329 360 338
260 198 211 206 181 185 187 180 173 169 172 169 157 158 157 158 163 156 158 154 151 156 152 144 144 132 107 83 70 50 57 49 30 42 26 36 16 357 338 342 332 335 326
239 203 206 183 184 178 179 178 170 159 161 153 159 159 155 153 150 150 153 148 143 142 140 131 122 113 96 79 78 96 83 88 45 19 353 355 4 354 331 338 332 325 318
237 201 168 170 169 177 181 182 148 152 154 156 160 152 145 149 146 142 146 144 144 133 130 124 117 104 95 92 94 89 97 66 46 21 23 9 350 330 336 338 318 316 318
171 141 139 136 121 148 202 175 144 155 152 153 152 145 146 143 141 143 137 140 144 141 134 123 114 112 129 123 108 99 79 66 29 16 343 342 338 334 336 337 336 334 333
135 128 137 137 114 119 173 131 141 150 149 149 147 139 140 142 141 137 138 141 141 138 132 132 144 133 125 131 131 131 94 99 93 9 346 338 327 333 339 340 341 341 339
141 129 143 160 164 138 146 154 143 141 147 143 137 140 140 142 143 143 141 141 135 131 130 133 123 116 111 112 109 106 100 79 43 7 349 341 324 324 330 333 333 337 328
133 123 121 132 149 165 153 138 137 140 136 131 133 137 143 141 138 141 142 138 134 132 130 114 108 103 101 101 108 126 85 19 346 335 330 310 322 330 330 334 333 330 335
132 135 131 132 139 141 139 139 137 136 131 129 131 132 135 133 137 139 135 129 124 120 117 114 112 108 104 102 100 86 61 24 2 15 359 349 344 342 342 343 343 345 341
128 136 144 156 139 135 133 135 131 130 126 124 125 127 132 135 134 130 127 124 123 119 115 112 108 105 104 100 92 70 52 28 1 3 357 350 347 347 354 2 6 9 15
130 128 131 144 145 138 136 129 128 126 124 125 126 126 129 130 127 126 121 118 116 118 124 107 95 96 98 107 107 104 92 56 354 4 7 343 357 16 19 20 21 15 14
123 127 134 140 145 137 132 127 125 122 121 122 123 126 126 124 121 117 119 128 129 119 89 84 87 87 82 88 122 171 109 109 81 35 344 8 25 27 23 25 21 14 6
118 121 123 128 133 130 124 119 115 122 122 123 127 127 125 127 130 129 128 116 104 97 90 82 77 71 64 56 55 57 78 111 47 27 29 28 26 28 17 14 15 6 7
109 115 120 125 126 122 124 121 122 129 132 130 122 121 122 120 113 113 114 114 108 103 93 92 89 86 71 60 50 43 43 61 53 54 35 25 24 22 19 12 13 1 8
113 118 118 117 112 121 122 124 131 133 130 122 120 115 113 115 116 132 131 126 117 114 101 100 108 98 77 74 65 66 78 81 72 54 41 26 21 22 17 19 17 8 5
111 112 112 111 109 113 116 125 132 132 123 122 124 130 132 135 139 132 128 127 118 134 138 132 130 85 80 77 76 79 84 72 60 50 32 29 26 25 21 19 16 10 360
106 108 112 112 111 112 114 119 128 131 130 123 130 135 135 136 120 129 129 121 121 130 110 142 129 92 88 88 78 77 76 71 54 43 35 29 26 24 19 16 12 11 2